Location: Freistadt
(48.5112°N, 14.5013°E)
Time: 23:45:05
(UTC+02:00)

JY1SAT - Visible Passes

Search period start: 31 March 2023 00:00
Search period end: 10 April 2023 00:00
Orbit: 557 x 577 km, 97.6° (Epoch: 30 March)

Date Brightness Start Highest point End Pass type
(mag) Time Alt. Az. Time Alt. Az. Time Alt. Az.
31 Mar ? 21:53:42 50° NE 21:53:42 50° NE 21:57:08 10° N visible
31 Mar ? 23:29:45 14° WNW 23:29:45 14° WNW 23:31:00 10° NW visible
01 Apr ? 21:54:38 53° NE 21:54:38 53° NE 21:58:10 10° N visible
01 Apr ? 23:30:41 14° WNW 23:30:41 14° WNW 23:31:59 10° NW visible
02 Apr ? 21:55:33 55° NE 21:55:33 55° NE 21:59:12 10° N visible
02 Apr ? 23:31:36 14° WNW 23:31:36 14° WNW 23:32:56 10° NW visible
03 Apr ? 21:56:27 58° NE 21:56:27 58° NE 22:00:12 10° N visible
03 Apr ? 23:32:31 13° WNW 23:32:31 13° WNW 23:33:53 10° NW visible
04 Apr ? 21:57:20 60° ENE 21:57:20 60° ENE 22:01:11 10° N visible
04 Apr ? 23:33:24 13° WNW 23:33:24 13° WNW 23:34:47 10° WNW visible
05 Apr ? 21:58:12 62° ENE 21:58:12 62° ENE 22:02:08 10° N visible
05 Apr ? 23:34:15 13° W 23:34:15 13° W 23:35:41 10° WNW visible
06 Apr ? 21:59:03 64° ENE 21:59:05 64° ENE 22:03:05 10° N visible
06 Apr ? 23:35:06 13° W 23:35:06 13° W 23:36:33 10° WNW visible
07 Apr ? 21:59:52 65° E 21:59:59 65° ENE 22:04:01 10° N visible
07 Apr ? 23:35:56 13° W 23:35:56 13° W 23:37:25 10° WNW visible
08 Apr ? 22:00:41 65° E 22:00:54 67° ENE 22:04:55 10° N visible
08 Apr ? 23:36:44 13° W 23:36:44 13° W 23:38:14 10° WNW visible
09 Apr ? 22:01:28 65° ESE 22:01:47 69° ENE 22:05:48 10° N visible
09 Apr ? 23:37:32 12° W 23:37:32 12° W 23:39:02 10° WNW visible
